Time,TemperatureF,DewpointF,PressureIn,WindDirection,WindDirectionDegrees,WindSpeedMPH,WindSpeedGustMPH,Humidity,HourlyPrecipIn,Conditions,Clouds,dailyrainin,SoftwareType,DateUTC
2013-04-07 02:08:00,58.6,42.5,30.06,SW,224,1.0,0.0,55,0.00,,,0.00,WeatherTracker,2013-04-07 07:08:00,
2013-04-07 02:09:00,58.6,42.5,30.06,SW,224,1.0,0.0,55,0.00,,,0.00,WeatherTracker,2013-04-07 07:09:00,
2013-04-07 02:14:00,58.5,42.4,30.06,SW,222,0.0,0.0,55,0.00,,,0.00,WeatherTracker,2013-04-07 07:14:00,
2013-04-07 02:19:00,58.4,42.3,30.06,WSW,238,0.0,0.0,55,0.00,,,0.00,WeatherTracker,2013-04-07 07:19:00,
2013-04-07 02:24:00,58.3,42.7,30.06,WSW,242,0.0,0.0,56,0.00,,,0.00,WeatherTracker,2013-04-07 07:24:00,
2013-04-07 02:29:00,58.2,43.0,30.06,WSW,250,0.0,0.0,57,0.00,,,0.00,WeatherTracker,2013-04-07 07:29:00,
2013-04-07 02:34:00,58.1,42.9,30.06,SW,221,4.0,0.0,57,0.00,,,0.00,WeatherTracker,2013-04-07 07:34:00,
2013-04-07 02:39:00,58.1,43.4,30.06,SW,234,0.0,0.0,58,0.00,,,0.00,WeatherTracker,2013-04-07 07:39:00,
2013-04-07 02:44:00,58.0,43.3,30.05,WSW,238,0.0,0.0,58,0.00,,,0.00,WeatherTracker,2013-04-07 07:44:00,
2013-04-07 02:49:00,57.8,43.1,30.05,WSW,237,0.0,0.0,58,0.00,,,0.00,WeatherTracker,2013-04-07 07:49:00,
2013-04-07 02:54:00,57.6,42.9,30.06,SW,234,0.0,0.0,58,0.00,,,0.00,WeatherTracker,2013-04-07 07:54:00,
2013-04-07 03:00:00,57.4,43.2,30.06,SW,234,3.0,0.0,59,0.00,,,0.00,WeatherTracker,2013-04-07 08:00:00,
2013-04-07 03:05:00,57.2,43.0,30.05,SW,235,0.0,0.0,59,0.00,,,0.00,WeatherTracker,2013-04-07 08:05:00,
2013-04-07 03:10:00,56.9,43.2,30.05,WSW,238,0.0,0.0,60,0.00,,,0.00,WeatherTracker,2013-04-07 08:10:00,
2013-04-07 03:15:00,56.8,43.5,30.06,WSW,238,0.0,0.0,61,0.00,,,0.00,WeatherTracker,2013-04-07 08:15:00,
2013-04-07 03:20:00,56.6,43.3,30.05,WSW,238,0.0,0.0,61,0.00,,,0.00,WeatherTracker,2013-04-07 08:20:00,
2013-04-07 03:25:00,56.4,43.5,30.06,WSW,238,1.0,0.0,62,0.00,,,0.00,WeatherTracker,2013-04-07 08:25:00,
2013-04-07 03:30:00,56.3,43.4,30.06,WSW,238,0.0,0.0,62,0.00,,,0.00,WeatherTracker,2013-04-07 08:30:00,
2013-04-07 03:35:00,56.2,43.4,30.06,WSW,238,0.0,0.0,62,0.00,,,0.00,WeatherTracker,2013-04-07 08:35:00,
2013-04-07 03:40:00,56.0,43.6,30.06,WSW,238,0.0,0.0,63,0.00,,,0.00,WeatherTracker,2013-04-07 08:40:00,
2013-04-07 03:45:00,55.9,43.9,30.06,SW,236,0.0,0.0,64,0.00,,,0.00,WeatherTracker,2013-04-07 08:45:00,
2013-04-07 03:50:00,55.8,43.8,30.06,SW,236,2.0,0.0,64,0.00,,,0.00,WeatherTracker,2013-04-07 08:50:00,
2013-04-07 03:55:00,55.6,44.0,30.06,SW,236,0.0,0.0,65,0.00,,,0.00,WeatherTracker,2013-04-07 08:55:00,
2013-04-07 04:00:00,55.5,43.9,30.06,SW,236,0.0,0.0,65,0.00,,,0.00,WeatherTracker,2013-04-07 09:00:00,
2013-04-07 04:05:00,55.4,44.2,30.06,SW,236,1.0,0.0,66,0.00,,,0.00,WeatherTracker,2013-04-07 09:05:00,
2013-04-07 04:10:00,55.3,44.1,30.06,SW,225,0.0,0.0,66,0.00,,,0.00,WeatherTracker,2013-04-07 09:10:00,
2013-04-07 04:15:00,55.2,44.0,30.07,SW,229,0.0,0.0,66,0.00,,,0.00,WeatherTracker,2013-04-07 09:15:00,
2013-04-07 04:20:00,55.1,43.9,30.06,SW,229,0.0,0.0,66,0.00,,,0.00,WeatherTracker,2013-04-07 09:20:00,
2013-04-07 04:25:00,55.1,44.3,30.06,SW,227,0.0,0.0,67,0.00,,,0.00,WeatherTracker,2013-04-07 09:25:00,
2013-04-07 04:31:00,55.0,44.2,30.06,SW,227,0.0,0.0,67,0.00,,,0.00,WeatherTracker,2013-04-07 09:31:00,
2013-04-07 04:36:00,55.0,44.2,30.07,SW,228,0.0,0.0,67,0.00,,,0.00,WeatherTracker,2013-04-07 09:36:00,
2013-04-07 04:41:00,55.0,44.6,30.07,SW,228,0.0,0.0,68,0.00,,,0.00,WeatherTracker,2013-04-07 09:41:00,
2013-04-07 04:46:00,55.0,44.6,30.07,SW,227,0.0,0.0,68,0.00,,,0.00,WeatherTracker,2013-04-07 09:46:00,
2013-04-07 04:51:00,55.0,44.6,30.07,SW,227,0.0,0.0,68,0.00,,,0.00,WeatherTracker,2013-04-07 09:51:00,
2013-04-07 04:56:00,54.9,44.9,30.07,SW,232,1.0,0.0,69,0.00,,,0.00,WeatherTracker,2013-04-07 09:56:00,
2013-04-07 05:01:00,54.8,44.8,30.07,SW,232,0.0,0.0,69,0.00,,,0.00,WeatherTracker,2013-04-07 10:01:00,
2013-04-07 05:06:00,54.8,44.8,30.07,SW,236,0.0,0.0,69,0.00,,,0.00,WeatherTracker,2013-04-07 10:06:00,
2013-04-07 05:11:00,54.7,44.7,30.07,SW,236,0.0,0.0,69,0.00,,,0.00,WeatherTracker,2013-04-07 10:11:00,
2013-04-07 10:17:00,62.2,51.9,30.13,SSW,206,0.0,0.0,69,0.00,,,0.00,WeatherTracker,2013-04-07 15:17:00,
2013-04-07 10:23:00,62.9,51.8,30.13,SSW,206,0.0,0.0,67,0.00,,,0.00,WeatherTracker,2013-04-07 15:23:00,
2013-04-07 10:28:00,63.2,51.2,30.13,SW,221,0.0,0.0,65,0.00,,,0.00,WeatherTracker,2013-04-07 15:28:00,
2013-04-07 10:33:00,63.6,52.0,30.13,WNW,298,3.0,0.0,66,0.00,,,0.00,WeatherTracker,2013-04-07 15:33:00,
2013-04-07 10:38:00,63.8,51.8,30.13,WNW,292,0.0,0.0,65,0.00,,,0.00,WeatherTracker,2013-04-07 15:38:00,
2013-04-07 10:43:00,64.1,51.2,30.13,West,270,0.0,0.0,63,0.00,,,0.00,WeatherTracker,2013-04-07 15:43:00,
2013-04-07 10:48:00,64.4,51.1,30.12,SSE,159,0.0,0.0,62,0.00,,,0.00,WeatherTracker,2013-04-07 15:48:00,
2013-04-07 10:53:00,64.7,51.8,30.13,SSE,158,0.0,0.0,63,0.00,,,0.00,WeatherTracker,2013-04-07 15:53:00,
2013-04-07 10:58:00,65.3,52.8,30.12,South,182,0.0,0.0,64,0.00,,,0.00,WeatherTracker,2013-04-07 15:58:00,
2013-04-07 11:03:00,65.9,52.1,30.12,South,184,0.0,0.0,61,0.00,,,0.00,WeatherTracker,2013-04-07 16:03:00,
2013-04-07 11:08:00,66.4,52.1,30.12,SW,229,0.0,0.0,60,0.00,,,0.00,WeatherTracker,2013-04-07 16:08:00,
2013-04-07 11:13:00,66.5,51.7,30.12,SSW,206,0.0,0.0,59,0.00,,,0.00,WeatherTracker,2013-04-07 16:13:00,
2013-04-07 11:18:00,66.9,52.1,30.12,SW,226,2.0,0.0,59,0.00,,,0.00,WeatherTracker,2013-04-07 16:18:00,
2013-04-07 11:23:00,67.3,52.9,30.11,SSE,161,0.0,0.0,60,0.00,,,0.00,WeatherTracker,2013-04-07 16:23:00,
2013-04-07 11:28:00,67.8,52.5,30.11,SSW,200,0.0,0.0,58,0.00,,,0.00,WeatherTracker,2013-04-07 16:28:00,
2013-04-07 11:33:00,68.0,52.7,30.11,SSE,163,3.0,0.0,58,0.00,,,0.00,WeatherTracker,2013-04-07 16:33:00,
2013-04-07 11:38:00,68.0,52.7,30.11,SW,228,2.0,0.0,58,0.00,,,0.00,WeatherTracker,2013-04-07 16:38:00,
2013-04-07 11:44:00,68.0,51.7,30.11,SW,221,0.0,0.0,56,0.00,,,0.00,WeatherTracker,2013-04-07 16:44:00,
2013-04-07 11:49:00,68.0,51.7,30.11,South,186,2.0,0.0,56,0.00,,,0.00,WeatherTracker,2013-04-07 16:49:00,
2013-04-07 11:54:00,67.9,51.6,30.10,WSW,254,0.0,0.0,56,0.00,,,0.00,WeatherTracker,2013-04-07 16:54:00,
2013-04-07 11:59:00,67.9,51.6,30.10,SW,220,0.0,0.0,56,0.00,,,0.00,WeatherTracker,2013-04-07 16:59:00,
2013-04-07 12:04:00,68.2,52.4,30.09,SW,227,0.0,0.0,57,0.00,,,0.00,WeatherTracker,2013-04-07 17:04:00,
2013-04-07 12:09:00,68.5,52.2,30.09,SSW,194,2.0,0.0,56,0.00,,,0.00,WeatherTracker,2013-04-07 17:09:00,
2013-04-07 12:14:00,69.0,53.6,30.09,SSW,200,0.0,0.0,58,0.00,,,0.00,WeatherTracker,2013-04-07 17:14:00,
2013-04-07 12:19:00,68.9,51.1,30.09,SSE,151,7.0,0.0,53,0.00,,,0.00,WeatherTracker,2013-04-07 17:19:00,
2013-04-07 12:24:00,68.6,51.8,30.09,SW,218,0.0,0.0,55,0.00,,,0.00,WeatherTracker,2013-04-07 17:24:00,
2013-04-07 12:29:00,68.3,51.5,30.09,SSW,200,2.0,0.0,55,0.00,,,0.00,WeatherTracker,2013-04-07 17:29:00,
2013-04-07 12:34:00,68.2,51.9,30.09,West,268,4.0,0.0,56,0.00,,,0.00,WeatherTracker,2013-04-07 17:34:00,
2013-04-07 12:39:00,68.8,52.5,30.09,SW,233,3.0,0.0,56,0.00,,,0.00,WeatherTracker,2013-04-07 17:39:00,
2013-04-07 12:44:00,69.5,51.6,30.09,SSW,199,0.0,0.0,53,0.00,,,0.00,WeatherTracker,2013-04-07 17:44:00,
2013-04-07 12:49:00,70.1,51.6,30.08,SW,214,2.0,0.0,52,0.00,,,0.00,WeatherTracker,2013-04-07 17:49:00,
2013-04-07 12:54:00,70.4,51.9,30.08,WSW,245,0.0,0.0,52,0.00,,,0.00,WeatherTracker,2013-04-07 17:54:00,
2013-04-07 13:00:00,70.7,51.7,30.08,SSE,167,3.0,0.0,51,0.00,,,0.00,WeatherTracker,2013-04-07 18:00:00,
2013-04-07 13:05:00,70.8,51.8,30.08,SSE,160,4.0,0.0,51,0.00,,,0.00,WeatherTracker,2013-04-07 18:05:00,
2013-04-07 13:10:00,70.4,52.4,30.07,WSW,247,4.0,0.0,53,0.00,,,0.00,WeatherTracker,2013-04-07 18:10:00,
2013-04-07 13:15:00,70.2,52.3,30.07,SW,218,0.0,0.0,53,0.00,,,0.00,WeatherTracker,2013-04-07 18:15:00,
2013-04-07 19:43:00,66.9,49.7,30.00,SW,233,0.0,0.0,54,0.00,,,0.00,WeatherTracker,2013-04-08 00:43:00,
2013-04-07 19:48:00,66.7,50.0,30.00,SW,234,0.0,0.0,55,0.00,,,0.00,WeatherTracker,2013-04-08 00:48:00,
2013-04-07 19:53:00,66.5,50.3,30.00,SW,234,0.0,0.0,56,0.00,,,0.00,WeatherTracker,2013-04-08 00:53:00,
2013-04-07 19:58:00,66.2,49.5,30.00,SW,234,0.0,0.0,55,0.00,,,0.00,WeatherTracker,2013-04-08 00:58:00,
2013-04-07 20:03:00,66.0,50.3,30.00,SW,234,0.0,0.0,57,0.00,,,0.00,WeatherTracker,2013-04-08 01:03:00,
2013-04-07 20:08:00,65.8,49.7,30.00,SW,234,0.0,0.0,56,0.00,,,0.00,WeatherTracker,2013-04-08 01:08:00,
2013-04-07 20:13:00,65.6,49.9,30.00,SW,234,0.0,0.0,57,0.00,,,0.00,WeatherTracker,2013-04-08 01:13:00,
2013-04-07 20:18:00,65.4,49.8,30.00,SW,234,0.0,0.0,57,0.00,,,0.00,WeatherTracker,2013-04-08 01:18:00,
2013-04-07 20:23:00,65.3,49.7,30.00,SW,234,0.0,0.0,57,0.00,,,0.00,WeatherTracker,2013-04-08 01:23:00,
2013-04-07 20:28:00,65.1,49.9,30.00,SW,234,0.0,0.0,58,0.00,,,0.00,WeatherTracker,2013-04-08 01:28:00,
2013-04-07 20:33:00,65.0,49.9,30.00,SW,233,0.0,0.0,58,0.00,,,0.00,WeatherTracker,2013-04-08 01:33:00,
2013-04-07 20:38:00,64.8,50.1,30.01,SW,234,0.0,0.0,59,0.00,,,0.00,WeatherTracker,2013-04-08 01:38:00,
2013-04-07 20:43:00,64.7,50.0,30.01,SW,233,0.0,0.0,59,0.00,,,0.00,WeatherTracker,2013-04-08 01:43:00,
2013-04-07 20:48:00,64.5,50.3,30.01,SW,234,0.0,0.0,60,0.00,,,0.00,WeatherTracker,2013-04-08 01:48:00,
2013-04-07 20:53:00,64.5,50.3,30.02,SW,233,0.0,0.0,60,0.00,,,0.00,WeatherTracker,2013-04-08 01:53:00,
2013-04-07 20:58:00,64.5,50.3,30.02,SW,233,0.0,0.0,60,0.00,,,0.00,WeatherTracker,2013-04-08 01:58:00,
2013-04-07 21:03:00,64.5,50.3,30.02,SW,234,0.0,0.0,60,0.00,,,0.00,WeatherTracker,2013-04-08 02:03:00,
2013-04-07 21:08:00,64.6,50.4,30.02,SW,233,0.0,0.0,60,0.00,,,0.00,WeatherTracker,2013-04-08 02:08:00,
2013-04-07 21:13:00,64.6,50.4,30.02,SW,234,0.0,0.0,60,0.00,,,0.00,WeatherTracker,2013-04-08 02:13:00,
2013-04-07 21:18:00,64.5,50.3,30.03,SW,234,0.0,0.0,60,0.00,,,0.00,WeatherTracker,2013-04-08 02:18:00,
2013-04-07 21:23:00,64.6,50.4,30.04,SW,234,0.0,0.0,60,0.00,,,0.00,WeatherTracker,2013-04-08 02:23:00,
2013-04-07 21:28:00,64.6,50.8,30.04,SW,234,0.0,0.0,61,0.00,,,0.00,WeatherTracker,2013-04-08 02:28:00,
2013-04-07 21:33:00,64.5,50.3,30.04,SW,233,0.0,0.0,60,0.00,,,0.00,WeatherTracker,2013-04-08 02:33:00,
2013-04-07 21:38:00,64.5,50.7,30.04,SW,233,0.0,0.0,61,0.00,,,0.00,WeatherTracker,2013-04-08 02:38:00,
2013-04-07 21:43:00,64.4,50.7,30.04,SW,234,1.0,0.0,61,0.00,,,0.00,WeatherTracker,2013-04-08 02:43:00,
2013-04-07 21:48:00,64.3,50.6,30.04,SW,233,0.0,0.0,61,0.00,,,0.00,WeatherTracker,2013-04-08 02:48:00,
2013-04-07 21:53:00,64.1,50.4,30.04,SW,233,0.0,0.0,61,0.00,,,0.00,WeatherTracker,2013-04-08 02:53:00,
2013-04-07 21:58:00,64.0,50.7,30.04,SW,234,0.0,0.0,62,0.00,,,0.00,WeatherTracker,2013-04-08 02:58:00,
2013-04-07 22:04:00,63.9,50.2,30.03,SW,234,1.0,0.0,61,0.00,,,0.00,WeatherTracker,2013-04-08 03:04:00,